DECAYED

DMSP 5D-2 F13 DEB, 42289 (Decayed)

Orbit data source: Space-Track

DMSP 5D-2 F13 DEB, 42289 was space debris in SSO originally from a launch on Fri, 24 Mar 1995 UTC launched from the Air Force Western Test Range (AFWTR). Debris objects in space refer to the collection of defunct objects orbiting the Earth. Examples of debris include non-operational satellites, rocket bodies, and fragments generated from explosions, collisions, or faulty payload assembly.

Not visible in the next 10 days
Identifier
42289, 1995-015HF
Orbit
Decayed
Country
Flag of USUS
Related business
Manufacturer
Unknown
Mission
Decayed spacecraft
Bus & Motor
Unknown
Mass
Unknown
Launch date (UTC)
1995-03-24 (31 years ago)
Launch vehicle
Unknown
Launch site
Air Force Western Test Range (AFWTR)
Object type
Payload
Rocket body
Debris
Shape & HBR
Unknown shape, 0.1 m
Radar Cross Section
Small (<0.1 m²)

Expand to show TLE details & history
Last TLE update: 3 months ago

TLE from 3 months ago
0 DMSP 5D-2 F13 DEB
1 42289U 95015HF  26144.10056170  .00388031  00000-0  12271-1 0  9999
2 42289  98.8621 201.9073 0011470 238.6627 121.3487 15.31072338572137
Epoch: 2026-05-24T02:24Z
TLE epoch observation values (Epoch: 2026-05-24T02:24:48.530Z)
Latitude
-0.0001°
Longitude
-76.00244°
Altitude
479.767 km
Speed
7.623 km/s
True Right ascension
13h 27m 37s
True Declination
0° 00' 00"
Sunlit
Object was in full shadow at epoch
Visualization orbit readout
Latitude
Unknown
Longitude
Unknown
Altitude
Unknown
Speed
Unknown
Apparent Right ascension
Unknown
Apparent Declination
Unknown
Sunlit
N/A
Visualization observer readout
Local Sidereal Time
17:50:24
Azimuth
Unknown
Elevation
Unknown
Doppler factor
Unknown
Orbital elements
Apogee altitude
477.486 km
Perigee altitude
461.777 km
Semi-major axis
6,847.768 km
Eccentricity
0.00115
Inclination
98.8621°
RAAN
201.9073°
Arg. of periapsis
238.6627°
True anomaly
121.46087°
Mean anomaly
121.3487°
Eccentric anomaly
121.40479°
Mean motion
3.83018 °/min
Orbital period
93.99 mins
BSTAR
0.012271
Loading maneuver chart data...
Computing Atmospheric mass density...

Documentation

Showing up to 5 results
|